Regional Weather Roundup
Issued by NWS Boston, MA

Home | Current Version | Previous Version | Text Only | Print | Product List | Glossary On
Versions: 1 2 3 4 5 6 7 8 9 10 11 12 13 14 15 16 17 18 19 20 21 22 23 24 25 26 27 28
000
ASUS41 KBOX 301710
RWRBOX

REGIONAL WEATHER ROUNDUP
NATIONAL WEATHER SERVICE TAUNTON MA
100 PM EDT MON MAY 30 2016

NOTE:  "FAIR" INDICATES FEW OR NO CLOUDS BELOW 12,000 FEET WITH NO
SIGNIFICANT WEATHER AND/OR OBSTRUCTIONS TO VISIBILITY.  THE FOLLOWING
OBSERVATION LOCATIONS DO NOT REPORT PRESENT WEATHER...PROVINCETOWN...
SMITHFIELD...BLOCK ISLAND...KEENE...AND OXFORD.

MAZALL-301800-
EASTERN MASSACHUSETTS

CITY           SKY/WX    TMP DP  RH WIND       PRES   REMARKS
BOSTON         CLOUDY    60  60 100 SE7       29.97F
BEVERLY        CLOUDY    62  58  86 S5        29.96F
LAWRENCE       CLOUDY    66  62  87 SW5       29.97F
BEDFORD        CLOUDY    65  63  93 SW6       29.95F
BLUE HILL        N/A     62  62 100 S6        29.97F
NORWOOD        CLOUDY    65  63  93 VRB5      29.96F
MARSHFIELD     CLOUDY    59  59 100 VRB3      29.97F FOG
PLYMOUTH       CLOUDY    69  68  96 SW12      29.97F
TAUNTON        LGT RAIN  70  67  90 W5        29.97F FOG
NEW BEDFORD    CLOUDY    68  67  96 SW10G21   29.97S
$$

MAZALL-301800-
CAPE COD AND THE ISLANDS

CITY           SKY/WX    TMP DP  RH WIND       PRES   REMARKS
FALMOUTH       CLOUDY    68  68 100 SW22G30   29.99S FOG
HYANNIS        HVY RAIN  68  66  93 SW15      29.97F FOG
CHATHAM        LGT RAIN  64  64 100 SW6       30.00F FOG
PROVINCETOWN   CLOUDY    65  65 100 SW13      29.98S
NANTUCKET      RAIN      64  62  93 SW15      30.02S FOG
MARTHAS VNYRD  LGT RAIN  66  65  96 SW16G22   30.00S FOG
$$

MAZALL-301800-
CENTRAL AND WESTERN MASSACHUSETTS

CITY           SKY/WX    TMP DP  RH WIND       PRES   REMARKS
WORCESTER      CLOUDY    68  64  87 S6        29.98F
FITCHBURG      PTSUNNY   71  64  78 SE7       29.96F
ORANGE         PTSUNNY   71  64  78 S10       29.95F
SPRINGFIELD    PTSUNNY   74  66  77 S9        29.94F
WESTFIELD      CLOUDY    74  67  78 S8        29.94F
NORTH ADAMS    NOT AVBL
PITTSFIELD     CLOUDY    73  62  68 SW7       29.94F
$$

RIZALL-301800-
RHODE ISLAND

CITY           SKY/WX    TMP DP  RH WIND       PRES   REMARKS
PROVIDENCE     DRIZZLE   69  66  90 NE3       29.98F
NEWPORT        FOG       64  64 100 S8        29.99S VSB 1/4
BLOCK ISLAND   LGT RAIN  63  63 100 SW14      30.00F VSB 1/4
SMITHFIELD     CLOUDY   N/A N/A N/A CALM      29.98F
WESTERLY       FOG       66  64  93 SW8       29.99F VSB 3/4
$$

CTZALL-301800-
CONNECTICUT

CITY           SKY/WX    TMP DP  RH WIND       PRES   REMARKS
BRADLEY INTL   LGT RAIN  73  67  81 S7        29.94F
HARTFORD       CLOUDY    74  68  81 SE6       29.95F
BRIDGEPORT     CLOUDY    74  68  81 SW9       29.97S
DANBURY        PTSUNNY   75  66  73 SW8       29.97F
GROTON         CLOUDY    65  65 100 SW10      29.98S FOG
NEW HAVEN      CLOUDY    70  68  93 S6        29.97F FOG
CHESTER        CLOUDY    70  70 100 S7        29.98F
MERIDEN        CLOUDY    75  67  76 VRB3      29.96S
WILLIMANTIC    CLOUDY    72  67  84 CALM      29.97F
OXFORD         CLOUDY    72  64  78 CALM      29.99F
$$

MEZ002-015-021-024-NHZ003-005-008-011-012-014-VTZ005-008-301800-
NORTHERN NEW ENGLAND

CITY           SKY/WX    TMP DP  RH WIND       PRES   REMARKS
PORTLAND ME    CLOUDY    63  59  87 S3        29.95F
BANGOR ME      CLOUDY    62  55  77 SW8       29.92F
CONCORD NH     MOSUNNY   70  62  76 VRB3      29.94F
MANCHESTER NH  PTSUNNY   67  61  81 VRB6      29.94F
NASHUA NH      CLOUDY    66  62  87 VRB3      29.96F
PORTSMOUTH NH  CLOUDY    65  60  85 SW2       29.93F
JAFFREY NH     MOSUNNY   71  65  81 VRB6      29.96F
KEENE NH       PTSUNNY   73  64  73 SW7       29.94F
BURLINGTON VT  FAIR      81  64  56 S13G22    29.82F
MT. WASHINGTON PTSUNNY   54  50  87 W23         N/A
$$

NYZ052-076-301800-
EASTERN NEW YORK

CITY           SKY/WX    TMP DP  RH WIND       PRES   REMARKS
ALBANY         MOSUNNY   78  63  59 S12       29.92F
NEW YORK CITY  PTSUNNY   79  71  76 VRB5      29.95F
$$

ANZALL-301800-
MARINE OBSERVATIONS

STATION/POSITION TIME  TEMP    WIND        PRES    VSBY  WAVE
                       AIR SEA DIR/SP/G                  HT/PER
                 (UTC) (F)     (DEG/KT/KT) (MB)    (MI)  (FT/S)
BOSTON BUOY      1650   55 57  140/  4/  6 1014.9F         2/ 6
BUZZARDS BAY     1600   62     220/ 20/ 21 1016.1F
NANTUCKET SOUND  1650   63 59  220/ 17/ 19 1015.4F         2/ 3
MASS BAY-STELLWA 1604   54 57                N/A    1 7/8  2/ 6
ISLE OF SHOALS   1600   54     180/  5/  6 1014.7F
S OF BLOCK IS    1625      58                N/A           3/ 4
$$

......................KEY.........................
  SKY/WX - SKY CONDITION/PRESENT WEATHER
  TMP    - TEMPERATURE IN FAHRENHEIT
  DWPT   - DEWPOINT IN FAHRENHEIT
  RH     - RELATIVE HUMIDITY IN PERCENT
  WIND   - DIRECTION AND SPEED IN MPH
  PRES   - MEAN SEA LEVEL PRESSURE IN INCHES OF HG
  WCI    - WIND CHILL INDEX
  VSB    - VISIBILITY IN MILES
  HX     - HEAT INDEX
  TC     - TEMPERATURE IN CELSIUS
  VRB    - VARIABLE WIND DIRECTION
  N/A    - NOT AVAILABLE




USA.gov is the U.S. government's official web portal to all federal, state and local government web resources and services.